Weather History for EGXV - October, 2012

Change the Weather History Date:

Wednesday, October 10, 2012

  Actual Average Record
Temperature  
Mean Temperature 42 °F -  
Max Temperature 53 °F - - ()
Min Temperature 30 °F - - ()
Degree Days  
Heating Degree Days 24    
Moisture  
Dew Point 39 °F    
Average Humidity 86    
Maximum Humidity 100    
Minimum Humidity 58    
Precipitation  
Precipitation 0.00 in - - ()
Sea Level Pressure  
Sea Level Pressure 29.98 in    
Wind  
Wind Speed 2 mph ()    
Max Wind Speed 7 mph    
Max Gust Speed -    
Visibility 6.2 miles    
Events      
T = Trace of Precipitation, MM = Missing Value Source: Averaged Metar Reports

Daily Weather History Graph

Daily Weather History Graph

Search for Another Location

Airport or City:

Trip Planner

Search our weather history database for the weather conditions in past years. The results will help you decide how hot, cold, wet, or windy it might be!

Date:

Astronomy

Oct. 10, 2012 Rise Set
Actual Time 7:20 AM BST 6:15 PM BST
Civil Twilight 6:45 AM BST 6:50 PM BST
Nautical Twilight 6:04 AM BST 7:31 PM BST
Astronomical Twilight 5:23 AM BST 8:12 PM BST
Moon 12:55 AM BST (10/10) 3:50 PM BST (10/10)
Length of Visible Light 12h 05m
Length of Day
10h 55m
Waning Crescent, 29% of the Moon is Illuminated
Oct 10
Waning Crescent
Oct 15
New
Oct 22
First Quarter
Oct 29
Full
Nov 7
Last Quarter

Hourly Weather History & Observations

Time (BST) Temp. Windchill Dew Point Humidity Pressure Visibility Wind Dir Wind Speed Gust Speed Precip Events Conditions
12:50 AM 35.6 °F 32.8 °F 33.8 °F 93% 30.06 in 6.2 mi West 3.5 mph - N/A   Unknown
1:50 AM 33.8 °F - 33.8 °F 100% 30.04 in 6.2 mi West 2.3 mph - N/A   Unknown
2:50 AM 33.8 °F - 33.8 °F 100% 30.04 in 6.2 mi West 1.2 mph - N/A   Unknown
3:50 AM 32.0 °F - 32.0 °F 100% 30.04 in 6.2 mi Calm Calm - N/A   Partly Cloudy
4:50 AM 32.0 °F - 32.0 °F 100% 30.01 in 6.2 mi West 1.2 mph - N/A   Unknown
5:50 AM 32.0 °F - 32.0 °F 100% 30.01 in 6.2 mi WSW 2.3 mph - N/A   Unknown
6:50 AM 30.2 °F - 30.2 °F 100% 30.01 in 6.2 mi NNE 1.2 mph - N/A   Scattered Clouds
7:50 AM 32.0 °F - 32.0 °F 100% 30.01 in 6.2 mi SW 1.2 mph - N/A   Partly Cloudy
8:50 AM 37.4 °F - 37.4 °F 100% 30.01 in 6.2 mi NNE 2.3 mph - N/A   Scattered Clouds
9:50 AM 42.8 °F - 42.8 °F 100% 30.01 in 6.2 mi WSW 1.2 mph - N/A   Mostly Cloudy
10:50 AM 50.0 °F - 42.8 °F 76% 30.01 in 6.2 mi SSE 2.3 mph - N/A   Partly Cloudy
11:50 AM 51.8 °F - 41.0 °F 67% 30.01 in 6.2 mi SE 3.5 mph - N/A   Scattered Clouds
12:50 PM 53.6 °F - 39.2 °F 58% 29.98 in 6.2 mi SSE 5.8 mph - N/A   Mostly Cloudy
1:50 PM 53.6 °F - 39.2 °F 58% 29.98 in 6.2 mi SSE 5.8 mph - N/A   Mostly Cloudy
2:50 PM 53.6 °F - 41.0 °F 62% 29.98 in 6.2 mi South 6.9 mph - N/A   Mostly Cloudy
3:50 PM 53.6 °F - 41.0 °F 62% 29.95 in 6.2 mi South 4.6 mph - N/A   Overcast
4:50 PM 51.8 °F - 42.8 °F 71% 29.92 in 6.2 mi SSE 5.8 mph - N/A   Overcast
5:50 PM 50.0 °F - 44.6 °F 82% 29.92 in 6.2 mi SE 5.8 mph - N/A   Mostly Cloudy
6:50 PM 50.0 °F - 44.6 °F 82% 29.92 in 6.2 mi ESE 3.5 mph - N/A   Mostly Cloudy
7:50 PM 48.2 °F - 44.6 °F 87% 29.92 in 6.2 mi SE 4.6 mph - N/A   Mostly Cloudy
8:50 PM 48.2 °F - 44.6 °F 87% 29.92 in 6.2 mi ESE 2.3 mph - N/A   Mostly Cloudy
9:50 PM 48.2 °F - 44.6 °F 87% 29.89 in 6.2 mi ESE 2.3 mph - N/A   Mostly Cloudy
10:50 PM 48.2 °F - 46.4 °F 93% 29.89 in 6.2 mi SE 2.3 mph - N/A   Overcast
11:50 PM 48.2 °F - 44.6 °F 87% 29.89 in 6.2 mi SSE 2.3 mph - N/A   Overcast